Regional Weather Roundup
Issued by NWS

Home | Current Version | Previous Version | Graphics & Text | Print | Product List | Glossary On
Versions: 1 2 3 4 5 6 7 8 9 10 11 12 13 14 15 16 17 18 19 20 21 22 23 24 25 26 27 28 29 30 31 32 33 34 35 36 37 38 39 40 41 42 43 44 45 46 47 48 49 50
000
ASUS43 KTOP 010408
RWRKS

WEATHER ROUNDUP FOR KANSAS
NATIONAL WEATHER SERVICE GOODLAND KS
1100 PM CDT FRI JUL 31 2015

NOTE:  "FAIR" INDICATES FEW OR NO CLOUDS BELOW 12,000 FEET WITH NO
SIGNIFICANT WEATHER AND/OR OBSTRUCTIONS TO VISIBILITY.

KSZ001>006-013>018-027>032-041>047-010500-
NORTHWEST KANSAS

CITY           SKY/WX    TMP DP  RH WIND       PRES   REMARKS
GOODLAND       CLEAR     74  56  53 S14       30.19R
HAYS           CLEAR     73  61  64 SE8       30.13R
HILL CITY      CLEAR     78  62  57 S6        30.12R
RUSSELL        CLEAR     76  67  73 S9        30.11R
$$

KSZ061>065-074>080-084>089-010500-
SOUTHWEST KANSAS

CITY           SKY/WX    TMP DP  RH WIND       PRES   REMARKS
DODGE CITY     PTCLDY    73  67  81 S6        30.16R
ELKHART          N/A     69  63  81 SE7         N/A
GARDEN CITY    PTCLDY    72  67  84 S7        30.17R
GREAT BEND     CLEAR     75  66  73 SE8       30.12R
LIBERAL        CLOUDY    73  64  73 S5        30.17S
PRATT          CLEAR     77  70  78 S5        30.15R
$$

KSZ066>073-081>083-090>101-010500-
SOUTHEAST KANSAS

CITY           SKY/WX    TMP DP  RH WIND       PRES   REMARKS
CHANUTE        CLEAR     75  71  87 S6        30.10R
COFFEYVILLE    CLEAR     75  70  84 CALM      30.09R
HUTCHINSON     PTCLDY    73  68  84 CALM      30.11R
MEDICINE LODGE   N/A     78  72  81 CALM      30.10R
NEWTON         PTCLDY    75  66  73 S7        30.13S
PARSONS        CLEAR     75  72  90 CALM      30.10R
WICHITA INTL   MOCLDY    80  73  79 S8        30.10R
WICHITA JABRA  MOCLDY    79  74  84 S7        30.11R
WICHITA MCCONL MOCLDY    79  73  82 S7        30.11R
WINFIELD       CLEAR     78  73  84 SE3       30.11R
$$

KSZ007>012-019>026-033>040-048>060-102>105-010500-
NORTHEAST KANSAS

CITY           SKY/WX    TMP DP  RH WIND       PRES   REMARKS
CONCORDIA      MOCLDY    74  64  71 W7        30.10F
EMPORIA        CLEAR     75  67  76 S7        30.09R
LAWRENCE       CLEAR     71  68  90 NE3       30.08R
MANHATTAN      CLEAR     76  71  85 CALM      30.07S
MARYSVILLE     MOCLDY    77  70  78 CALM      30.09R
OLATHE IND     CLEAR     77  69  76 CALM      30.09S
OLATHE EXE     CLEAR     77  68  73 CALM      30.07S
SALINA         CLEAR     77  69  76 S3        30.09R
TOPEKA BILLARD CLEAR     76  74  93 CALM      30.07R
TOPEKA FORBES  CLEAR     77  69  76 CALM      30.08S
$$


USA.gov is the U.S. government's official web portal to all federal, state and local government web resources and services.